When you browse on this site, cookies collect data to enhance your experience and personalize the content and advertising you see.
Visit our Privacy Policy to learn more. By continuing to use the site, you agree to this use of cookies and data.
  • In Hungary
  • List of Countries
  • For 7 days
  • Water Temperature
  • Weather Map
  • News
  • Weather Widgets
  • user-avatar
    Login

    Hourly Weather Bet Shemesh

    Today, 23 August, Friday

    Time Temperature Precipitation Wind Pressure Humidity
    00:00 +24°C° 0 mm 2 mps 735 mmHg 81%
    01:00 +23°C° 0 mm 2 mps 735 mmHg 83%
    02:00 +23°C° 0 mm 1 mps 735 mmHg 84%
    03:00 +23°C° 0 mm 1 mps 735 mmHg 86%
    04:00 +22°C° 0 mm 1 mps 735 mmHg 87%
    05:00 +22°C° 0 mm 1 mps 735 mmHg 88%
    06:00 +25°C° 0 mm 1 mps 735 mmHg 77%
    07:00 +27°C° 0 mm 2 mps 735 mmHg 65%
    08:00 +30°C° 0 mm 2 mps 735 mmHg 54%
    09:00 +33°C° 0 mm 3 mps 735 mmHg 48%
    10:00 +35°C° 0 mm 3 mps 735 mmHg 42%
    11:00 +37°C° 0 mm 4 mps 735 mmHg 36%
    12:00 +37°C° 0 mm 5 mps 735 mmHg 38%
    13:00 +38°C° 0 mm 6 mps 734 mmHg 40%
    14:00 +38°C° 0 mm 6 mps 734 mmHg 42%
    15:00 +35°C° 0 mm 6 mps 733 mmHg 46%
    16:00 +34°C° 0 mm 6 mps 733 mmHg 50%
    17:00 +33°C° 0 mm 7 mps 733 mmHg 55%
    18:00 +30°C° 0 mm 5 mps 733 mmHg 64%
    19:00 +28°C° 0 mm 4 mps 733 mmHg 73%
    20:00 +26°C° 0 mm 2 mps 734 mmHg 82%
    21:00 +25°C° 0 mm 2 mps 734 mmHg 82%
    22:00 +25°C° 0 mm 2 mps 734 mmHg 82%
    23:00 +25°C° 0 mm 1 mps 734 mmHg 83%

    Tomorrow, 24 August, Saturday

    Time Temperature Precipitation Wind Pressure Humidity
    00:00 +24°C° 0 mm 1 mps 734 mmHg 84%
    01:00 +24°C° 0 mm 1 mps 734 mmHg 85%
    02:00 +23°C° 0 mm 1 mps 734 mmHg 87%
    03:00 +23°C° 0 mm 1 mps 734 mmHg 87%
    04:00 +23°C° 0 mm 1 mps 734 mmHg 88%
    05:00 +23°C° 0 mm 1 mps 734 mmHg 89%
    06:00 +25°C° 0 mm 1 mps 734 mmHg 79%
    07:00 +28°C° 0 mm 1 mps 734 mmHg 69%
    08:00 +30°C° 0 mm 1 mps 735 mmHg 58%
    09:00 +32°C° 0 mm 2 mps 735 mmHg 51%
    10:00 +35°C° 0 mm 3 mps 735 mmHg 45%
    11:00 +37°C° 0 mm 4 mps 735 mmHg 38%
    12:00 +37°C° 0 mm 4 mps 735 mmHg 39%
    13:00 +37°C° 0 mm 5 mps 734 mmHg 40%
    14:00 +38°C° 0 mm 6 mps 734 mmHg 41%
    15:00 +35°C° 0 mm 6 mps 734 mmHg 45%
    16:00 +34°C° 0 mm 6 mps 734 mmHg 48%
    17:00 +33°C° 0 mm 6 mps 734 mmHg 52%
    18:00 +30°C° 0 mm 4 mps 734 mmHg 61%
    19:00 +28°C° 0 mm 3 mps 735 mmHg 70%
    20:00 +26°C° 0 mm 2 mps 735 mmHg 78%
    21:00 +26°C° 0 mm 2 mps 735 mmHg 77%
    22:00 +25°C° 0 mm 1 mps 735 mmHg 76%
    23:00 +25°C° 0 mm 1 mps 735 mmHg 75%

    Day after tomorrow, 25 August, Sunday

    Time Temperature Precipitation Wind Pressure Humidity
    00:00 +25°C° 0 mm 1 mps 735 mmHg 76%
    01:00 +24°C° 0 mm 1 mps 735 mmHg 77%
    02:00 +24°C° 0 mm 1 mps 734 mmHg 77%
    03:00 +23°C° 0 mm 1 mps 734 mmHg 78%
    04:00 +23°C° 0 mm 1 mps 735 mmHg 79%
    05:00 +23°C° 0 mm 1 mps 735 mmHg 80%
    06:00 +25°C° 0 mm 1 mps 735 mmHg 70%
    07:00 +28°C° 0 mm 1 mps 735 mmHg 60%
    08:00 +31°C° 0 mm 1 mps 736 mmHg 50%
    09:00 +32°C° 0 mm 2 mps 736 mmHg 45%
    10:00 +35°C° 0 mm 3 mps 736 mmHg 39%
    11:00 +37°C° 0 mm 4 mps 736 mmHg 34%
    12:00 +37°C° 0 mm 4 mps 736 mmHg 34%
    13:00 +37°C° 0 mm 5 mps 735 mmHg 34%
    14:00 +38°C° 0 mm 6 mps 735 mmHg 35%
    15:00 +36°C° 0 mm 6 mps 735 mmHg 38%
    16:00 +35°C° 0 mm 6 mps 735 mmHg 42%
    17:00 +33°C° 0 mm 6 mps 734 mmHg 46%
    18:00 +30°C° 0 mm 5 mps 735 mmHg 55%
    19:00 +28°C° 0 mm 4 mps 735 mmHg 63%
    20:00 +26°C° 0 mm 3 mps 735 mmHg 71%
    21:00 +26°C° 0 mm 2 mps 735 mmHg 66%
    22:00 +26°C° 0 mm 2 mps 735 mmHg 61%
    23:00 +25°C° 0 mm 1 mps 735 mmHg 56%

    26 August, Monday

    Time Temperature Precipitation Wind Pressure Humidity
    00:00 +25°C° 0 mm 1 mps 735 mmHg 60%
    01:00 +24°C° 0 mm 1 mps 735 mmHg 65%
    02:00 +21°C° 0 mm 0 mps 735 mmHg 69%
    03:00 +21°C° 0 mm 0 mps 735 mmHg 68%
    04:00 +23°C° 0 mm 1 mps 735 mmHg 68%
    05:00 +23°C° 0 mm 1 mps 735 mmHg 67%
    06:00 +25°C° 0 mm 1 mps 735 mmHg 59%
    07:00 +28°C° 0 mm 1 mps 736 mmHg 51%
    08:00 +31°C° 0 mm 1 mps 736 mmHg 43%
    09:00 +32°C° 0 mm 2 mps 736 mmHg 39%
    10:00 +35°C° 0 mm 2 mps 736 mmHg 35%
    11:00 +37°C° 0 mm 3 mps 736 mmHg 31%
    12:00 +37°C° 0 mm 4 mps 736 mmHg 33%
    13:00 +37°C° 0 mm 5 mps 736 mmHg 35%
    14:00 +38°C° 0 mm 6 mps 735 mmHg 37%
    15:00 +35°C° 0 mm 6 mps 735 mmHg 40%
    16:00 +34°C° 0 mm 6 mps 735 mmHg 44%
    17:00 +32°C° 0 mm 6 mps 735 mmHg 48%
    18:00 +29°C° 0 mm 5 mps 735 mmHg 56%
    19:00 +27°C° 0 mm 4 mps 735 mmHg 64%
    20:00 +25°C° 0 mm 3 mps 736 mmHg 73%
    21:00 +25°C° 0 mm 2 mps 736 mmHg 73%
    22:00 +24°C° 0 mm 2 mps 736 mmHg 72%
    23:00 +24°C° 0 mm 1 mps 736 mmHg 72%

    27 August, Tuesday

    Time Temperature Precipitation Wind Pressure Humidity
    00:00 +23°C° 0 mm 1 mps 736 mmHg 73%
    01:00 +23°C° 0 mm 1 mps 736 mmHg 74%
    02:00 +20°C° 0 mm 0 mps 735 mmHg 76%
    03:00 +20°C° 0 mm 0 mps 735 mmHg 76%
    04:00 +20°C° 0 mm 0 mps 735 mmHg 76%
    05:00 +19°C° 0 mm 0 mps 736 mmHg 76%
    06:00 +22°C° 0 mm 0 mps 736 mmHg 68%
    07:00 +26°C° 0 mm 1 mps 736 mmHg 59%
    08:00 +29°C° 0 mm 1 mps 736 mmHg 50%
    09:00 +31°C° 0 mm 2 mps 736 mmHg 45%
    10:00 +34°C° 0 mm 2 mps 736 mmHg 39%
    11:00 +35°C° 0 mm 3 mps 736 mmHg 34%
    12:00 +35°C° 0 mm 4 mps 736 mmHg 36%
    13:00 +35°C° 0 mm 5 mps 736 mmHg 39%
    14:00 +35°C° 0 mm 6 mps 735 mmHg 42%
    15:00 +34°C° 0 mm 6 mps 735 mmHg 46%
    16:00 +33°C° 0 mm 6 mps 735 mmHg 51%
    17:00 +30°C° 0 mm 6 mps 735 mmHg 56%
    18:00 +28°C° 0 mm 5 mps 735 mmHg 66%
    19:00 +26°C° 0 mm 3 mps 735 mmHg 77%
    20:00 +24°C° 0 mm 2 mps 736 mmHg 88%
    21:00 +24°C° 0 mm 2 mps 735 mmHg 88%
    22:00 +24°C° 0 mm 2 mps 735 mmHg 88%
    23:00 +23°C° 0 mm 1 mps 735 mmHg 88%

    28 August, Wednesday

    Time Temperature Precipitation Wind Pressure Humidity
    00:00 +23°C° 0 mm 1 mps 735 mmHg 89%
    01:00 +22°C° 0 mm 1 mps 735 mmHg 90%
    02:00 +22°C° 0 mm 1 mps 735 mmHg 91%
    03:00 +22°C° 0 mm 1 mps 735 mmHg 91%
    04:00 +21°C° 0 mm 1 mps 735 mmHg 91%
    05:00 +21°C° 0 mm 1 mps 735 mmHg 90%
    06:00 +24°C° 0 mm 1 mps 735 mmHg 81%
    07:00 +26°C° 0 mm 1 mps 735 mmHg 71%
    08:00 +28°C° 0 mm 1 mps 735 mmHg 61%
    09:00 +30°C° 0 mm 2 mps 735 mmHg 56%
    10:00 +33°C° 0 mm 3 mps 735 mmHg 50%
    11:00 +34°C° 0 mm 4 mps 735 mmHg 44%
    12:00 +35°C° 0 mm 5 mps 735 mmHg 45%
    13:00 +35°C° 0 mm 5 mps 734 mmHg 47%
    14:00 +35°C° 0 mm 6 mps 734 mmHg 48%
    15:00 +34°C° 0 mm 6 mps 734 mmHg 53%
    16:00 +32°C° 0 mm 6 mps 734 mmHg 57%
    17:00 +30°C° 0 mm 6 mps 734 mmHg 62%
    18:00 +28°C° 0 mm 5 mps 734 mmHg 71%
    19:00 +26°C° 0 mm 3 mps 734 mmHg 81%
    20:00 +24°C° 0 mm 2 mps 735 mmHg 91%
    21:00 +24°C° 0 mm 1 mps 735 mmHg 91%
    22:00 +24°C° 0 mm 1 mps 735 mmHg 91%
    23:00 +24°C° 0 mm 1 mps 735 mmHg 91%
    Show more